SAUDISAT 2

Last updated on Thu Sep 10 2026 00:03:37 GMT+0000 (Coordinated Universal Time)

1 28371U 04025F 26252.58437296 .00000168 00000+0 48425-4 0 9994 2 28371 98.5564 254.7703 0025481 39.7856 320.5204 14.56723446178033
UTC large
Height (km)
Speed (km/s)
/
Latitude / Longitude
Inclination (degrees)
Orbital Period (minutes)
Azimuth
Elevation
Range (km)
Doppler Factor

Next 0 passes for location: London (51.5072 / 0.1276)

No passes found over London.
SAUDISAT 2